Home   Weather   Nosy Be   Past weeks
Flag for Madagascar

Past Weather in Nosy Be, Madagascar — Yesterday and Last 2 Weeks

Now
54 °F

Passing clouds.


Feels Like: 53 °F
Forecast: 70 / 49 °F
Wind: 5 mph from Southeast

Location: Antananarivo / Ivato

Current Time: Jul 2, 2020 at 8:01:16 pm

Latest Report: Jul 2, 2020 at 7:30 pm


Visibility: N/A

Pressure: 30.24 "Hg

Humidity: 77%

Dew Point: 46 °F

Location of Nosy BeLocation

Past Weather in Nosy Be — Graph

°F

Nosy Be Temperature Yesterday

Maximum temperature yesterday: 72 °F (at 12:30 pm)
Minimum temperature yesterday: 50 °F (at 1:30 am)
Average temperature yesterday: 59 °F

High & Low Weather Summary for the Past Weeks

 TemperatureHumidityPressure
High79 °F (Jun 22, 2:00 pm)100% (Jun 22, 11:00 pm)30.36 "Hg (Jun 22, 11:00 pm)
Low46 °F (Jun 29, 5:30 am)20% (Jun 29, 3:00 pm)30.09 "Hg (Jun 30, 2:00 pm)
Average60 °F78%30.22 "Hg
* Reported Jun 17 7:00 pm — Jul 2 7:00 pm, Nosy Be. Weather by CustomWeather, © 2020

Note: Actual official high and low records may vary slightly from our data, if they occured in-between our weather recording intervals... More about our weather records

Nosy Be Weather History for the Previous 24 Hours

Scroll right to see more
 ConditionsComfort  
Time TempWeatherWind HumidityBarometerVisibility
7:00 pm
Thu, Jul 2
55 °FPassing clouds.6 mph72%30.24 "HgN/A
6:00 pm57 °FPassing clouds.10 mph63%30.21 "HgN/A
5:30 pm59 °FPassing clouds.12 mph63%30.21 "HgN/A
5:00 pm61 °FPassing clouds.12 mph59%30.21 "HgN/A
4:30 pm63 °FScattered clouds.13 mph56%30.21 "HgN/A
4:00 pm63 °FScattered clouds.13 mph56%30.18 "HgN/A
3:00 pm66 °FScattered clouds.13 mph49%30.18 "HgN/A
2:30 pm66 °FScattered clouds.13 mph49%30.18 "HgN/A
2:00 pm66 °FScattered clouds.12 mph49%30.18 "HgN/A
1:30 pm66 °FScattered clouds.12 mph52%30.18 "HgN/A
1:00 pm66 °FPartly sunny.10 mph52%30.18 "HgN/A
12:30 pm64 °FPartly sunny.13 mph60%30.21 "HgN/A
12:00 pm66 °FBroken clouds.13 mph56%30.21 "HgN/A
11:30 am64 °FBroken clouds.14 mph60%30.24 "HgN/A
11:00 am63 °FBroken clouds.13 mph59%30.24 "HgN/A
10:30 am61 °FBroken clouds.16 mph68%30.24 "HgN/A
10:00 am61 °FBroken clouds.17 mph63%30.24 "HgN/A
9:30 am61 °FPartly sunny.13 mph68%30.24 "HgN/A
9:00 am59 °FPartly sunny.14 mph72%30.24 "HgN/A
8:30 am57 °FPartly sunny.12 mph77%30.21 "HgN/A
8:00 am59 °FPartly sunny.14 mph77%30.21 "HgN/A
7:30 am57 °FPartly sunny.13 mph82%30.21 "HgN/A
7:00 am57 °FBroken clouds.12 mph82%30.21 "HgN/A
6:30 am57 °FBroken clouds.10 mph82%30.18 "HgN/A
6:00 am57 °FPassing clouds.9 mph82%30.18 "HgN/A
5:30 am55 °FPassing clouds.5 mph88%30.18 "HgN/A
5:00 am55 °FPassing clouds.5 mph88%30.18 "HgN/A
4:00 am54 °FPassing clouds.6 mph94%30.18 "HgN/A
3:30 am54 °FPassing clouds.6 mph94%30.18 "HgN/A
3:00 am54 °FPassing clouds.6 mph88%30.18 "HgN/A
2:30 am54 °FPassing clouds.5 mph94%30.18 "HgN/A
2:00 am54 °FPassing clouds.5 mph88%30.21 "HgN/A
1:30 am55 °FPassing clouds.7 mph88%30.21 "HgN/A
1:00 am55 °FPassing clouds.5 mph82%30.24 "HgN/A
12:30 am55 °FPassing clouds.5 mph88%30.24 "HgN/A
12:00 am54 °FPassing clouds.5 mph88%30.24 "HgN/A
11:30 pm
Wed, Jul 1
55 °FPassing clouds.8 mph82%30.24 "HgN/A
10:30 pm57 °FPassing clouds.9 mph88%30.27 "HgN/A
10:00 pm59 °FPassing clouds.9 mph82%30.24 "HgN/A
9:30 pm57 °FPassing clouds.8 mph94%30.24 "HgN/A
9:00 pm57 °FPassing clouds.8 mph94%30.24 "HgN/A
8:30 pm59 °FPassing clouds.6 mph88%30.24 "HgN/A
8:00 pm61 °FPassing clouds.8 mph77%30.24 "HgN/A
Weather by CustomWeather, © 2020

See weather overview